EW9826 Weather Reports


time (UTC)temp
F
wind
direction
speed
knots
gust
knots
rain 1hr
in
rain 24hr
in
rain mn
in
humidity
%
barometer
mb
20260508192006 60 340 0.0 0.9 0.00 0.00 0.00 62 1018.4
20260508191506 60 340 0.0 1.7 0.00 0.00 0.00 62 1018.4
20260508190006 61 340 0.9 2.6 0.00 0.00 0.00 61 1018.3
20260508185506 61 340 0.0 2.6 0.00 0.00 0.00 60 1018.3
20260508183506 61 340 0.9 4.3 0.00 0.00 0.00 60 1018.0
20260508183006 61 340 0.9 2.6 0.00 0.00 0.00 60 1017.9
20260508182505 61 340 0.9 2.6 0.00 0.00 0.00 60 1017.9
20260508182006 61 340 1.7 4.3 0.00 0.00 0.00 60 1017.9
20260508181505 61 340 2.6 5.2 0.00 0.00 0.00 59 1017.9
20260508181006 61 340 3.5 5.2 0.00 0.00 0.00 59 1017.9
20260508174006 61 335 1.7 4.3 0.00 0.00 0.00 59 1017.8
20260508173508 61 334 2.6 6.1 0.00 0.00 0.00 59 1017.7
20260508173006 61 334 2.6 4.3 0.00 0.00 0.00 60 1017.7
20260508172006 61 334 2.6 4.3 0.00 0.00 0.00 59 1017.7
20260508171505 61 335 2.6 4.3 0.00 0.00 0.00 59 1017.6
20260508171006 61 338 1.7 6.1 0.00 0.00 0.00 59 1017.6
20260508164505 62 3 0.9 2.6 0.00 0.00 0.00 51 1017.4
20260508164005 62 3 4.3 6.1 0.00 0.00 0.00 50 1017.4
20260508163505 62 327 2.6 5.2 0.00 0.00 0.00 52 1017.3
20260508163006 62 33 2.6 5.2 0.00 0.00 0.00 51 1017.3
20260508162506 63 33 1.7 4.3 0.00 0.00 0.00 52 1017.3
20260508162006 63 35 1.7 4.3 0.00 0.00 0.00 51 1017.3
20260508160006 64 326 2.6 5.2 0.00 0.00 0.00 47 1017.3
20260508155505 65 302 1.7 5.2 0.00 0.00 0.00 46 1017.3
20260508153506 64 0 1.7 4.3 0.00 0.00 0.00 47 1017.3
20260508152005 63 56 1.7 4.3 0.00 0.00 0.00 46 1017.4
20260508143005 63 0 4.3 6.1 0.00 0.00 0.00 52 1017.5
20260508142505 63 4 3.5 7.0 0.00 0.00 0.00 53 1017.6
20260508142005 63 3 1.7 6.1 0.00 0.00 0.00 53 1017.6
20260508141505 63 84 0.0 2.6 0.00 0.00 0.00 49 1017.7
20260508141006 63 84 0.9 2.6 0.00 0.00 0.00 52 1017.7
20260508132005 62 142 2.6 5.2 0.00 0.00 0.00 57 1017.9
20260508131505 62 144 0.9 4.3 0.00 0.00 0.00 56 1017.9
20260508124005 62 11 0.9 5.2 0.00 0.00 0.00 57 1017.9
20260508123504 62 355 1.7 6.1 0.00 0.00 0.00 56 1017.9
20260508123005 63 53 2.6 4.3 0.00 0.00 0.00 57 1017.9
20260508122505 63 10 0.9 2.6 0.00 0.00 0.00 57 1017.9
20260508122005 63 10 0.9 7.8 0.00 0.00 0.00 57 1017.9
20260508115005 62 105 1.7 7.0 0.00 0.00 0.00 58 1017.9
20260508114504 63 327 2.6 5.2 0.00 0.00 0.00 57 1017.9
20260508114005 62 121 1.7 7.0 0.00 0.00 0.00 60 1017.9
20260508113504 61 127 2.6 8.7 0.00 0.00 0.00 59 1017.9
20260508113005 62 94 1.7 6.1 0.00 0.00 0.00 61 1017.9
20260508112505 62 93 2.6 7.0 0.00 0.00 0.00 60 1018.0
20260508112004 61 92 2.6 7.8 0.00 0.00 0.00 61 1017.9
20260508111505 61 117 1.7 6.1 0.00 0.00 0.00 62 1018.0
20260508111005 61 155 2.6 7.0 0.00 0.00 0.00 62 1018.1
20260508110005 61 106 1.7 4.3 0.00 0.00 0.00 63 1018.2
20260508105505 60 105 1.7 6.1 0.00 0.00 0.00 63 1018.2
20260508095005 58 96 2.6 7.8 0.00 0.00 0.00 69 1018.4
20260508094504 57 96 1.7 7.8 0.00 0.00 0.00 69 1018.4
20260508090004 56 98 3.5 7.0 0.00 0.00 0.00 73 1018.4
20260508085504 55 53 1.7 7.8 0.00 0.00 0.00 74 1018.4
20260508085005 55 116 2.6 7.0 0.00 0.00 0.00 75 1018.4
20260508084504 55 133 1.7 6.1 0.00 0.00 0.00 77 1018.4
20260508084009 55 89 3.5 7.0 0.00 0.00 0.00 77 1018.4
20260508083508 54 111 2.6 7.0 0.00 0.00 0.00 78 1018.4
20260508083008 54 115 5.2 8.7 0.00 0.00 0.00 78 1018.4
20260508082508 53 117 4.3 7.8 0.00 0.00 0.00 79 1018.4
20260508082009 53 100 5.2 8.7 0.00 0.00 0.00 79 1018.4
20260508081508 53 103 4.3 8.7 0.00 0.00 0.00 79 1018.4
20260508081009 53 109 4.3 8.7 0.00 0.00 0.00 80 1018.4
20260508074508 52 100 3.5 7.0 0.00 0.00 0.00 81 1018.4
20260508074009 52 99 2.6 7.8 0.00 0.00 0.00 82 1018.4
20260508073508 52 98 4.3 7.8 0.00 0.00 0.00 82 1018.4
20260508073009 52 98 3.5 6.1 0.00 0.00 0.00 82 1018.4
20260508064509 51 96 3.5 7.8 0.00 0.00 0.00 84 1018.0
20260508061508 50 95 2.6 5.2 0.00 0.00 0.00 84 1017.9
20260508061008 50 96 3.5 7.8 0.00 0.00 0.00 84 1017.9
20260508060008 50 95 2.6 6.1 0.00 0.00 0.00 84 1017.9
20260508055509 50 95 1.7 4.3 0.00 0.00 0.00 85 1017.9
20260508055008 50 95 2.6 4.3 0.00 0.00 0.00 85 1017.9
20260508052008 50 94 2.6 5.2 0.00 0.00 0.00 85 1017.7
20260508051508 50 94 2.6 6.1 0.00 0.00 0.00 85 1017.6
20260508051009 50 94 3.5 6.1 0.00 0.00 0.00 85 1017.5
20260508050008 50 9 1.7 4.3 0.00 0.00 0.00 85 1017.5
20260508045507 50 8 2.6 4.3 0.00 0.00 0.00 85 1017.4
20260508045008 50 3 2.6 2.6 0.00 0.00 0.00 85 1017.3
20260508044508 50 4 2.6 4.3 0.00 0.00 0.00 85 1017.3
20260508044007 50 0 1.7 2.6 0.00 0.00 0.00 85 1017.3
20260508043507 50 0 2.6 4.3 0.00 0.00 0.00 85 1017.3
20260508043008 50 355 1.7 4.3 0.00 0.00 0.00 85 1017.3
20260508042008 50 355 2.6 4.3 0.00 0.00 0.00 85 1017.3
20260508035507 50 90 5.2 7.8 0.00 0.00 0.00 84 1017.3
20260508035008 50 83 2.6 7.0 0.00 0.00 0.00 83 1017.3
20260508033508 51 80 2.6 6.1 0.00 0.00 0.00 83 1017.3
20260508031508 51 80 1.7 5.2 0.00 0.00 0.00 83 1017.2
20260508031007 51 80 2.6 7.0 0.00 0.00 0.00 82 1017.2
20260508030007 51 76 1.7 4.3 0.00 0.00 0.00 82 1017.1
20260508022507 52 71 1.7 2.6 0.00 0.00 0.00 82 1017.1
20260508022007 52 71 1.7 4.3 0.00 0.00 0.00 82 1017.1
20260508021507 52 70 2.6 6.1 0.00 0.00 0.00 82 1017.1
20260508021007 52 69 1.7 4.3 0.00 0.00 0.00 82 1017.1
20260508020007 52 69 0.0 2.6 0.00 0.00 0.00 81 1017.1
20260508015507 52 69 0.9 2.6 0.00 0.00 0.00 81 1017.0
20260508015007 52 69 0.9 4.3 0.00 0.00 0.00 81 1016.9
20260508014507 52 69 2.6 4.3 0.00 0.00 0.00 81 1016.9
20260508013508 52 68 1.7 4.3 0.00 0.00 0.00 81 1017.0
20260508011507 52 67 1.7 2.6 0.00 0.00 0.00 80 1017.0
20260508011007 52 67 0.9 2.6 0.00 0.00 0.00 79 1017.1
20260508005007 53 67 2.6 4.3 0.00 0.00 0.00 79 1017.1
20260508004507 53 67 1.7 2.6 0.00 0.00 0.00 78 1017.2
20260508003007 53 62 2.6 4.3 0.00 0.00 0.00 78 1017.2
20260508002507 53 59 1.7 2.6 0.00 0.00 0.00 78 1017.2
20260508002007 53 59 0.0 2.6 0.00 0.00 0.00 78 1017.2
20260507233507 53 59 0.0 0.9 0.00 0.00 0.00 78 1017.3
20260507233007 53 59 0.0 1.7 0.00 0.00 0.00 78 1017.3
20260507231007 53 59 0.0 0.9 0.00 0.00 0.00 77 1017.3
20260507230006 53 59 0.0 0.9 0.00 0.00 0.00 77 1017.3
20260507225506 53 59 0.0 1.7 0.00 0.00 0.00 77 1017.3
20260507225007 53 59 0.0 1.7 0.00 0.00 0.00 76 1017.3
20260507224507 53 59 0.9 1.7 0.00 0.00 0.00 76 1017.3
20260507224007 53 59 0.0 0.9 0.00 0.00 0.00 76 1017.3
20260507223506 53 59 0.0 0.9 0.00 0.00 0.00 76 1017.3
20260507223008 53 59 0.0 0.9 0.00 0.00 0.00 76 1017.3
20260507222507 53 59 0.0 0.0 0.00 0.00 0.00 76 1017.3
20260507222006 53 59 0.0 0.9 0.00 0.00 0.00 76 1017.3
20260507221506 53 59 0.0 0.9 0.00 0.00 0.00 75 1017.3
20260507215506 54 59 0.0 0.0 0.00 0.00 0.00 74 1017.3
20260507215006 54 59 0.0 1.7 0.00 0.00 0.00 74 1017.3
20260507211506 54 59 0.9 2.6 0.00 0.00 0.00 71 1017.3
20260507211007 54 59 0.0 0.9 0.00 0.00 0.00 70 1017.3
20260507204506 55 59 0.0 2.6 0.00 0.00 0.00 67 1017.1
20260507204006 55 59 0.9 2.6 0.00 0.00 0.00 67 1017.0
20260507203506 55 59 0.9 2.6 0.00 0.00 0.00 66 1016.9
20260507203006 56 59 0.0 2.6 0.00 0.00 0.00 65 1016.9
20260507202506 56 59 1.7 4.3 0.00 0.00 0.00 64 1016.9
20260507202007 56 58 0.9 2.6 0.00 0.00 0.00 63 1016.9